DW0326 Weather Reports


Display with metric or nautical units.
time (UTC)temp
F
wind
direction
speed
MPH
gust
MPH
rain 1hr
in
rain 24hr
in
rain mn
in
humidity
%
barometer
mb
20260831014317 88 179 2.0 12.0 0.00 0.00 0.00 73 1009.6
20260831012518 88 185 1.0 10.0 0.00 0.00 0.00 71 1009.5
20260831011618 89 173 1.0 7.0 0.00 0.00 0.00 70 1009.2
20260831010717 89 172 1.0 9.0 0.00 0.00 0.00 70 1009.2
20260831005818 89 177 1.0 7.0 0.00 0.00 0.00 69 1009.2
20260831004917 90 190 2.0 10.0 0.00 0.00 0.00 69 1009.2
20260831004018 90 176 1.0 11.0 0.00 0.00 0.00 67 1009.2
20260831003118 91 183 3.0 12.0 0.00 0.00 0.00 66 1009.1
20260831002218 91 177 1.0 9.0 0.00 0.00 0.00 65 1009.1
20260831001318 92 167 1.0 8.0 0.00 0.00 0.00 63 1009.1
20260831000418 92 172 3.0 13.0 0.00 0.00 0.00 62 1009.0
20260830233718 94 178 2.0 11.0 0.00 0.00 0.00 59 1008.9
20260830232817 94 177 1.0 10.0 0.00 0.00 0.00 59 1008.8
20260830231918 94 175 2.0 15.0 0.00 0.00 0.00 58 1008.8
20260830231018 94 162 1.0 9.0 0.00 0.00 0.00 57 1008.8
20260830230117 94 147 1.0 10.0 0.00 0.00 0.00 57 1008.8
20260830225218 94 172 1.0 12.0 0.00 0.00 0.00 56 1008.8
20260830224318 95 162 1.0 9.0 0.00 0.00 0.00 56 1008.7
20260830223417 96 159 1.0 10.0 0.00 0.00 0.00 56 1008.7
20260830222517 97 159 0.0 7.0 0.00 0.00 0.00 54 1008.7
20260830221618 97 170 1.0 13.0 0.00 0.00 0.00 52 1008.6
20260830220718 98 184 0.0 6.0 0.00 0.00 0.00 50 1008.6
20260830215818 99 204 2.0 10.0 0.00 0.00 0.00 51 1008.6
20260830214017 99 203 1.0 10.0 0.00 0.00 0.00 51 1008.7
20260830213118 99 175 1.0 10.0 0.00 0.00 0.00 51 1009.1
20260830212218 98 173 1.0 10.0 0.00 0.00 0.00 49 1009.1
20260830211317 98 174 1.0 11.0 0.00 0.00 0.00 51 1009.3
20260830210418 99 167 2.0 14.0 0.00 0.00 0.00 50 1009.4
20260830205518 99 0 0.0 0.0 0.00 0.00 0.00 52 1009.4
20260830203717 98 143 0.0 6.0 0.00 0.00 0.00 52 1009.7
20260830202818 98 139 0.0 2.0 0.00 0.00 0.00 51 1010.0
20260830201918 98 229 0.0 5.0 0.00 0.00 0.00 52 1010.1
20260830201018 98 91 0.0 5.0 0.00 0.00 0.00 52 1010.1
20260830200118 98 150 0.0 5.0 0.00 0.00 0.00 50 1010.3
20260830195217 98 154 1.0 7.0 0.00 0.00 0.00 53 1010.3
20260830194317 98 175 1.0 7.0 0.00 0.00 0.00 50 1010.6
20260830193417 99 210 0.0 7.0 0.00 0.00 0.00 52 1010.9
20260830191618 97 195 2.0 10.0 0.00 0.00 0.00 53 1011.1
20260830190717 97 231 0.0 7.0 0.00 0.00 0.00 56 1011.1
20260830185817 97 0 0.0 0.0 0.00 0.00 0.00 58 1011.3
20260830183117 97 242 1.0 6.0 0.00 0.00 0.00 56 1011.7
20260830182217 96 229 1.0 9.0 0.00 0.00 0.00 59 1011.7
20260830181318 95 249 0.0 6.0 0.00 0.00 0.00 60 1012.1
20260830180418 95 205 0.0 4.0 0.00 0.00 0.00 61 1012.2
20260830175517 94 0 0.0 0.0 0.00 0.00 0.00 62 1012.2
20260830174617 94 194 0.0 6.0 0.00 0.00 0.00 63 1012.7
20260830173718 94 0 0.0 0.0 0.00 0.00 0.00 64 1012.7
20260830172818 93 247 0.0 5.0 0.00 0.00 0.00 66 1012.7
20260830171017 92 0 0.0 0.0 0.00 0.00 0.00 67 1012.7
20260830170117 92 0 0.0 0.0 0.00 0.00 0.00 67 1012.8
20260830165217 92 0 0.0 0.0 0.00 0.00 0.00 68 1012.8
20260830164317 92 0 0.0 0.0 0.00 0.00 0.00 68 1012.9
20260830162518 91 210 0.0 6.0 0.00 0.00 0.00 70 1012.8
20260830161617 90 207 1.0 6.0 0.00 0.00 0.00 72 1012.9
20260830160718 89 211 0.0 4.0 0.00 0.00 0.00 74 1012.9
20260830155818 88 292 0.0 3.0 0.00 0.00 0.00 76 1013.0
20260830154917 88 0 0.0 0.0 0.00 0.00 0.00 75 1013.0
20260830153117 88 0 0.0 0.0 0.00 0.00 0.00 76 1013.0
20260830152218 88 206 1.0 6.0 0.00 0.00 0.00 78 1013.0
20260830151318 87 0 0.0 0.0 0.00 0.00 0.00 79 1013.0
20260830144617 86 205 0.0 5.0 0.00 0.00 0.00 83 1013.1
20260830143717 85 0 0.0 0.0 0.00 0.00 0.00 84 1013.1
20260830142817 85 0 0.0 0.0 0.00 0.00 0.00 85 1013.2
20260830141918 84 211 1.0 6.0 0.00 0.00 0.00 86 1013.1
20260830141018 84 220 1.0 6.0 0.00 0.00 0.00 87 1013.1
20260830140118 83 0 0.0 0.0 0.00 0.00 0.00 89 1012.9
20260830135217 82 229 0.0 5.0 0.00 0.00 0.00 90 1012.9
20260830134317 81 0 0.0 0.0 0.00 0.00 0.00 91 1012.6
20260830133418 80 0 0.0 0.0 0.00 0.00 0.00 93 1012.4
20260830132518 80 0 0.0 0.0 0.00 0.00 0.00 94 1012.4
20260830125817 79 0 0.0 0.0 0.00 0.00 0.00 95 1012.2
20260830124917 79 0 0.0 0.0 0.00 0.00 0.00 94 1012.2
20260830124017 79 0 0.0 0.0 0.00 0.00 0.00 95 1012.2
20260830123117 78 0 0.0 0.0 0.00 0.00 0.00 94 1012.1
20260830122217 78 0 0.0 0.0 0.00 0.00 0.00 94 1012.1
20260830121317 79 0 0.0 0.0 0.00 0.00 0.00 94 1012.1
20260830120417 79 0 0.0 0.0 0.00 0.00 0.00 95 1012.0
20260830115518 79 0 0.0 0.0 0.00 0.00 0.00 95 1012.0
20260830114618 79 0 0.0 0.0 0.00 0.00 0.00 94 1011.9
20260830113717 79 0 0.0 0.0 0.00 0.00 0.00 94 1011.9
20260830112817 79 0 0.0 0.0 0.00 0.00 0.00 93 1011.9
20260830111917 79 0 0.0 0.0 0.00 0.00 0.00 93 1011.7
20260830110117 80 0 0.0 0.0 0.00 0.00 0.00 94 1011.7
20260830105218 80 0 0.0 0.0 0.00 0.00 0.00 93 1011.7
20260830104317 80 0 0.0 0.0 0.00 0.00 0.00 92 1011.7
20260830103417 80 0 0.0 0.0 0.00 0.00 0.00 92 1011.6
20260830102517 80 0 0.0 0.0 0.00 0.00 0.00 92 1011.6
20260830101617 80 0 0.0 0.0 0.00 0.00 0.00 92 1011.5
20260830100717 80 0 0.0 0.0 0.00 0.00 0.00 92 1011.5
20260830095817 80 0 0.0 0.0 0.00 0.00 0.00 92 1011.3
20260830094917 80 0 0.0 0.0 0.00 0.00 0.00 92 1011.3
20260830094017 80 0 0.0 0.0 0.00 0.00 0.00 92 1011.3
20260830092217 80 0 0.0 0.0 0.00 0.00 0.00 91 1011.2
20260830091317 80 0 0.0 0.0 0.00 0.00 0.00 91 1011.2
20260830090417 80 0 0.0 0.0 0.00 0.00 0.00 91 1011.4
20260830085517 80 0 0.0 0.0 0.00 0.00 0.00 91 1011.4
20260830084617 80 0 0.0 0.0 0.00 0.00 0.00 91 1011.4
20260830083717 80 0 0.0 0.0 0.00 0.00 0.00 91 1011.4
20260830082817 81 0 0.0 0.0 0.00 0.00 0.00 91 1011.5
20260830081917 81 0 0.0 0.0 0.00 0.00 0.00 91 1011.6
20260830081017 81 0 0.0 0.0 0.00 0.00 0.00 90 1011.6
20260830080117 81 0 0.0 0.0 0.00 0.00 0.00 90 1011.6
20260830075217 81 0 0.0 0.0 0.00 0.00 0.00 90 1011.6
20260830074317 81 0 0.0 0.0 0.00 0.00 0.00 90 1011.6
20260830073417 81 0 0.0 0.0 0.00 0.00 0.00 89 1011.7
20260830072517 81 0 0.0 0.0 0.00 0.00 0.00 89 1011.7
20260830071617 81 0 0.0 0.0 0.00 0.00 0.00 89 1011.7
20260830070717 81 0 0.0 0.0 0.00 0.00 0.00 88 1011.7
20260830065817 82 0 0.0 0.0 0.00 0.00 0.00 88 1011.7
20260830063117 82 0 0.0 0.0 0.00 0.00 0.00 87 1011.6
20260830062217 82 0 0.0 0.0 0.00 0.00 0.00 87 1011.6
20260830061317 82 0 0.0 0.0 0.00 0.00 0.00 86 1011.6
20260830060417 82 0 0.0 0.0 0.00 0.00 0.00 86 1011.7
20260830055517 82 0 0.0 0.0 0.00 0.00 0.00 86 1011.7
20260830052817 83 201 0.0 5.0 0.00 0.00 0.00 85 1011.7
20260830051917 83 203 1.0 7.0 0.00 0.00 0.00 85 1011.7
20260830051017 83 215 0.0 7.0 0.00 0.00 0.00 84 1011.7
20260830044317 83 187 0.0 8.0 0.00 0.00 0.00 82 1011.7
20260830043417 83 183 1.0 7.0 0.00 0.00 0.00 82 1011.8
20260830040717 84 197 1.0 7.0 0.00 0.00 0.00 82 1011.7
20260830035817 84 176 0.0 4.0 0.00 0.00 0.00 81 1011.7
20260830034917 84 188 1.0 7.0 0.00 0.00 0.00 81 1011.7
20260830034017 84 200 0.0 7.0 0.00 0.00 0.00 81 1011.7
20260830033117 84 211 0.0 5.0 0.00 0.00 0.00 80 1011.7
20260830031317 85 191 1.0 6.0 0.00 0.00 0.00 80 1011.5
20260830030417 85 182 1.0 10.0 0.00 0.00 0.00 79 1011.5
20260830024617 86 185 2.0 9.0 0.00 0.00 0.00 79 1011.2
20260830023717 86 181 2.0 10.0 0.00 0.00 0.00 79 1011.2
20260830022817 86 184 2.0 10.0 0.00 0.00 0.00 78 1011.1
20260830021917 86 192 2.0 8.0 0.00 0.00 0.00 78 1010.7
20260830021017 86 181 2.0 11.0 0.00 0.00 0.00 78 1010.7
20260830020117 87 178 4.0 11.0 0.00 0.00 0.00 78 1010.6
20260830015217 87 193 4.0 14.0 0.00 0.00 0.00 79 1010.6